Weather History for KVTP - July, 2013

Change the Weather History Date:

Monday, July 22, 2013

  Actual Average (KTAD) Record (KTAD)
Temperature  
Mean Temperature 63 °F 74 °F  
Max Temperature 75 °F 89 °F 101 °F (1952)
Min Temperature 51 °F 59 °F 47 °F (1961)
Degree Days  
Heating Degree Days 2 0  
Month to date heating degree days 0  
Since 1 June heating degree days 39  
Since 1 July heating degree days 0  
Cooling Degree Days 0 9  
Month to date cooling degree days 192  
Year to date cooling degree days 361  
Since 1 June cooling degree days 333  
Growing Degree Days 13 (Base 50)    
Moisture  
Dew Point 36 °F    
Average Humidity 42    
Maximum Humidity 58    
Minimum Humidity 23    
Precipitation  
Precipitation 0.00 in 0.09 in 1.38 in (1954)
Month to date precipitation 1.52  
Year to date precipitation 7.45  
Sea Level Pressure  
Sea Level Pressure 30.47 in    
Wind  
Wind Speed 9 mph (South)    
Max Wind Speed 14 mph    
Max Gust Speed 23 mph    
Visibility 10 miles    
Events Rain , Thunderstorm    
T = Trace of Precipitation, MM = Missing Value Source: NWS Daily Summary

Daily Weather History Graph

Daily Weather History Graph

Search for Another Location

Airport or City:

Trip Planner

Search our weather history database for the weather conditions in past years. The results will help you decide how hot, cold, wet, or windy it might be!

Date:

Astronomy

Jul. 22, 2013 Rise Set
Actual Time 5:56 AM MDT 8:16 PM MDT
Civil Twilight 5:27 AM MDT 8:46 PM MDT
Nautical Twilight 4:50 AM MDT 9:23 PM MDT
Astronomical Twilight 4:10 AM MDT 10:03 PM MDT
Moon 8:06 PM MDT (7/22) 5:55 AM MDT (7/22)
Length of Visible Light 15h 19m
Length of Day
14h 19m
Full, 100% of the Moon is Illuminated
Jul 22
Full
Jul 22
Full
Jul 29
Last Quarter
Aug 6
New
Aug 14
First Quarter

Hourly Weather History & Observations

Time (MDT) Temp. Dew Point Humidity Pressure Visibility Wind Dir Wind Speed Gust Speed Precip Events Conditions
12:15 AM 53.6 °F 37.4 °F 54% 30.46 in 10.0 mi SW 12.7 mph 19.6 mph N/A   Clear
12:34 AM 53.6 °F 37.4 °F 54% 30.46 in 10.0 mi SW 11.5 mph 21.9 mph N/A   Clear
12:55 AM 53.6 °F 37.4 °F 54% 30.46 in 10.0 mi SW 11.5 mph 17.3 mph N/A   Clear
1:15 AM 53.6 °F 37.4 °F 54% 30.46 in 10.0 mi SW 11.5 mph 19.6 mph N/A   Clear
1:34 AM 53.6 °F 37.4 °F 54% 30.45 in 10.0 mi SW 9.2 mph 21.9 mph N/A   Clear
1:55 AM 53.6 °F 37.4 °F 54% 30.45 in 10.0 mi SW 10.4 mph 21.9 mph N/A   Clear
2:15 AM 53.6 °F 37.4 °F 54% 30.44 in 10.0 mi SW 13.8 mph 21.9 mph N/A   Clear
2:34 AM 53.6 °F 37.4 °F 54% 30.44 in 10.0 mi SW 8.1 mph 23.0 mph N/A   Clear
2:55 AM 53.6 °F 35.6 °F 51% 30.43 in 10.0 mi SW 10.4 mph 17.3 mph N/A   Clear
3:13 AM 55.4 °F 35.6 °F 47% 30.43 in 10.0 mi SW 11.5 mph 23.0 mph N/A   Clear
3:35 AM 55.4 °F 35.6 °F 47% 30.43 in 10.0 mi SW 11.5 mph 18.4 mph N/A   Clear
3:54 AM 55.4 °F 33.8 °F 44% 30.42 in 10.0 mi SW 11.5 mph 21.9 mph N/A   Clear
4:15 AM 55.4 °F 33.8 °F 44% 30.42 in 10.0 mi SW 12.7 mph 19.6 mph N/A   Clear
4:35 AM 55.4 °F 33.8 °F 44% 30.42 in 10.0 mi SW 13.8 mph 21.9 mph N/A   Clear
4:55 AM 55.4 °F 35.6 °F 47% 30.43 in 10.0 mi SW 11.5 mph 18.4 mph N/A   Clear
5:14 AM 53.6 °F 35.6 °F 51% 30.43 in 10.0 mi SW 8.1 mph 16.1 mph N/A   Clear
5:35 AM 53.6 °F 37.4 °F 54% 30.43 in 10.0 mi SW 6.9 mph - N/A   Clear
5:55 AM 53.6 °F 37.4 °F 54% 30.43 in 10.0 mi SW 6.9 mph - N/A   Clear
6:14 AM 51.8 °F 37.4 °F 58% 30.44 in 10.0 mi WSW 5.8 mph - N/A   Clear
6:35 AM 51.8 °F 37.4 °F 58% 30.44 in 10.0 mi WSW 8.1 mph - N/A   Clear
6:55 AM 51.8 °F 37.4 °F 58% 30.44 in 10.0 mi West 6.9 mph - N/A   Clear
7:15 AM 51.8 °F 37.4 °F 58% 30.45 in 10.0 mi West 8.1 mph - N/A   Clear
7:34 AM 53.6 °F 39.2 °F 58% 30.45 in 10.0 mi West 8.1 mph - N/A   Clear
7:55 AM 53.6 °F 37.4 °F 54% 30.46 in 10.0 mi WSW 6.9 mph - N/A   Clear
8:15 AM 53.6 °F 39.2 °F 58% 30.47 in 10.0 mi WSW 6.9 mph - N/A   Clear
8:35 AM 55.4 °F 39.2 °F 54% 30.47 in 10.0 mi West 6.9 mph - N/A   Clear
8:55 AM 57.2 °F 41.0 °F 55% 30.48 in 10.0 mi West 6.9 mph - N/A   Clear
9:14 AM 59.0 °F 41.0 °F 51% 30.48 in 10.0 mi WSW 5.8 mph - N/A   Clear
9:35 AM 60.8 °F 41.0 °F 48% 30.48 in 10.0 mi West 5.8 mph - N/A   Clear
9:55 AM 62.6 °F 42.8 °F 48% 30.48 in 10.0 mi WSW 5.8 mph - N/A   Clear
10:15 AM 62.6 °F 42.8 °F 48% 30.49 in 10.0 mi West 5.8 mph - N/A Thunderstorm Clear
10:35 AM 64.4 °F 41.0 °F 42% 30.49 in 10.0 mi WSW 4.6 mph - N/A   Clear
10:55 AM 66.2 °F 39.2 °F 37% 30.50 in 10.0 mi West 5.8 mph - N/A   Clear
11:15 AM 68.0 °F 39.2 °F 35% 30.50 in 10.0 mi Calm Calm - N/A   Clear
11:33 AM 69.8 °F 39.2 °F 33% 30.50 in 10.0 mi West 4.6 mph - N/A   Clear
11:55 AM 73.4 °F 39.2 °F 29% 30.49 in 10.0 mi Calm Calm - N/A   Clear
12:15 PM 69.8 °F 35.6 °F 28% 30.49 in 10.0 mi Calm Calm - N/A   Clear
12:35 PM 73.4 °F 33.8 °F 23% 30.48 in 10.0 mi Calm Calm - N/A   Clear
12:54 PM 69.8 °F 33.8 °F 27% 30.48 in 10.0 mi East 3.5 mph - N/A   Mostly Cloudy
1:15 PM 68.0 °F 37.4 °F 33% 30.48 in 10.0 mi ENE 6.9 mph - N/A   Overcast
1:34 PM 68.0 °F 37.4 °F 33% 30.48 in 10.0 mi East 6.9 mph - N/A   Overcast
1:55 PM 75.2 °F 41.0 °F 29% 30.48 in 10.0 mi East 9.2 mph - N/A   Mostly Cloudy
2:15 PM 68.0 °F 37.4 °F 33% 30.48 in 10.0 mi East 4.6 mph - N/A   Overcast
2:33 PM 64.4 °F 42.8 °F 45% 30.48 in 10.0 mi East 4.6 mph - N/A Rain , Thunderstorm Light Thunderstorms and Rain
2:55 PM 62.6 °F 46.4 °F 55% 30.48 in 10.0 mi ESE 4.6 mph - N/A Rain Light Rain
3:15 PM 68.0 °F 35.6 °F 30% 30.48 in 10.0 mi SSE 6.9 mph - N/A   Overcast
3:35 PM 68.0 °F 35.6 °F 30% 30.48 in 10.0 mi Calm Calm - N/A   Overcast
3:55 PM 68.0 °F 33.8 °F 28% 30.48 in 10.0 mi Calm Calm - N/A   Overcast
4:15 PM 66.2 °F 30.2 °F 26% 30.47 in 10.0 mi Calm Calm - N/A   Overcast
4:35 PM 64.4 °F 32.0 °F 30% 30.47 in 10.0 mi Calm Calm - N/A   Overcast
4:54 PM 64.4 °F 33.8 °F 32% 30.46 in 10.0 mi NE 3.5 mph - N/A   Overcast
5:15 PM 68.0 °F 35.6 °F 30% 30.46 in 10.0 mi East 8.1 mph - N/A Thunderstorm Overcast
5:34 PM 66.2 °F 33.8 °F 30% 30.46 in 10.0 mi ENE 8.1 mph - N/A   Mostly Cloudy
5:55 PM 66.2 °F 35.6 °F 32% 30.46 in 10.0 mi ENE 6.9 mph - N/A   Overcast
6:15 PM 66.2 °F 35.6 °F 32% 30.46 in 10.0 mi ENE 8.1 mph - N/A   Mostly Cloudy
6:35 PM 64.4 °F 37.4 °F 37% 30.46 in 10.0 mi ENE 8.1 mph - N/A   Scattered Clouds
6:55 PM 62.6 °F 37.4 °F 39% 30.47 in 10.0 mi ENE 8.1 mph 16.1 mph N/A   Clear
7:14 PM 62.6 °F 35.6 °F 37% 30.47 in 10.0 mi ENE 8.1 mph - N/A   Scattered Clouds
7:35 PM 62.6 °F 35.6 °F 37% 30.47 in 10.0 mi ENE 6.9 mph - N/A   Mostly Cloudy
7:55 PM 62.6 °F 33.8 °F 34% 30.48 in 10.0 mi ENE 8.1 mph - N/A   Mostly Cloudy
8:15 PM 62.6 °F 33.8 °F 34% 30.48 in 10.0 mi ENE 9.2 mph - N/A   Scattered Clouds
8:35 PM 60.8 °F 33.8 °F 36% 30.48 in 10.0 mi ENE 10.4 mph - N/A   Mostly Cloudy
8:54 PM 60.8 °F 33.8 °F 36% 30.48 in 10.0 mi East 9.2 mph - N/A   Overcast
9:13 PM 60.8 °F 33.8 °F 36% 30.48 in 10.0 mi ESE 6.9 mph - N/A Thunderstorm Overcast
9:35 PM 60.8 °F 32.0 °F 34% 30.49 in 10.0 mi East 9.2 mph - N/A   Mostly Cloudy
9:55 PM 60.8 °F 32.0 °F 34% 30.50 in 10.0 mi East 11.5 mph - N/A   Scattered Clouds
10:14 PM 60.8 °F 32.0 °F 34% 30.50 in 10.0 mi East 8.1 mph - N/A   Clear
10:35 PM 60.8 °F 32.0 °F 34% 30.50 in 10.0 mi East 9.2 mph 16.1 mph N/A   Clear
10:55 PM 60.8 °F 32.0 °F 34% 30.50 in 10.0 mi East 10.4 mph - N/A   Clear
11:15 PM 60.8 °F 32.0 °F 34% 30.51 in 10.0 mi ESE 5.8 mph - N/A   Clear
11:35 PM 60.8 °F 32.0 °F 34% 30.51 in 10.0 mi SE 6.9 mph - N/A   Clear
11:55 PM 60.8 °F 32.0 °F 34% 30.51 in 10.0 mi SE 5.8 mph - N/A   Clear